SCP
0 0 0 -0 0 0 0 0 -0 -0 -0 -0 -0 -0 0 0 -0 0 -0 -0 -0 -0 -0 -0 -0 -0 -0 -0 -0 -0 -0 -0 -0 -0 -0 -0 -0 -0 -0 0 0 -0 -0
0 0 0 -0 0 0 0 0 -0 -0 -0 -0 0 -0 0 -0 -0 -0 -0 -0 -0 -0 -0 -0 -0 -0 -0 -0 -0 -0 -0 -0 -0 -0 -0 -0 0 0 0 -0 -0 -0 -0
0 0 0 0 0 0 0 -0 0 0 0 0 0 0 -0 -0 -0 -0 -0 -0 -0 -0 -0 -0 -0 -0 -0 -0 -0 -0 -0 -0 -0 -0 0 0 -0 0 0 0 -0 -0 -0
0 0 0 0 0 0 -0 0 0 0 0 0 0 -0 -0 -0 -0 -0 -0 -0 -0 -0 -0 -0 -0 -0 -0 -0 -0 -0 -0 -0 0 0 0 -0 -0 -0 0 0 0 -0 -0
0 0 0 0 0 0 0 -0 0 0 -0 -0 0 0 -0 -0 -0 -0 -0 -0 0 -0 0 -0 -0 -0 -0 -0 -0 -0 -0 0 0 -0 0 -0 -0 -0 0 0 -0 0 0
0 0 0 0 0 0 0 0 0 0 0 0 0 0 0 0 0 0 0 0 0 0 0 -0 0 0 -0 0 0 -0 -0 0 -0 0 0 -0 -0 -0 0 0 0 -0 0
0 0 0 0 0 0 0 0 0 0 0 0 0 -0 0 0 0 0 0 0 0 -0 -0 -0 -0 -0 0 -0 0 -0 -0 -0 -0 -0 0 0 -0 -0 0 0 0 0 0
0 0 0 -0 -0 -0 0 -0 -0 -0 -0 -0 -0 0 0 0 -0 0 0 0 0 0 0 0 0 0 -0 -0 -0 0 -0 -0 -0 -0 -0 -0 -0 -0 -0 -0 -0 -0 -0
0 0 0 0 -0 -0 -0 -0 0 0 0 0 0 0 0 -0 0 0 0 0 0 0 0 0 0 -0 -0 0 0 0 0 0 -0 -0 0 -0 -0 -0 -0 -0 -0 -0 -0
0 0 0 0 0 0 0 0 0 0 0 0 0 0 0 0 0 0 0 0 0 0 0 0 0 0 -0 -0 -0 0 0 0 -0 0 -0 0 0 0 0 0 0 0 0
0 0 0 0 0 0 0 0 0 0 0 0 0 0 0 0 0 0 -0 0 0 0 0 0 0 0 0 0 -0 -0 0 -0 0 0 0 0 0 0 0 0 0 0 0
0 0 0 0 0 0 -0 -0 0 0 0 0 0 0 0 0 0 0 0 0 0 0 0 0 0 0 0 0 0 0 -0 0 -0 0 0 0 0 0 0 0 0 0 0
0 -0 0 0 0 0 -0 -0 0 0 0 0 0 0 -0 0 0 0 0 0 0 0 0 0 0 0 -0 -0 -0 0 0 -0 0 0 0 0 0 0 -0 0 0 0 0
-0 0 0 0 -0 0 -0 -0 -0 0 0 0 0 0 0 0 0 0 0 0 0 0 0 0 -0 -0 -0 -0 -0 -0 -0 0 -0 0 0 0 0 0 0 0 0 0 0
0 0 0 -0 -0 -0 -0 -0 0 0 0 0 0 -0 0 0 0 0 0 0 0 0 0 0 0 0 0 0 -0 0 0 -0 -0 -0 -0 0 0 0 0 0 0 0 0
0 0 0 0 -0 -0 -0 -0 0 0 0 0 0 0 0 0 0 0 0 0 0 0 0 0 0 0 0 0 0 0 -0 -0 -0 -0 0 -0 -0 0 0 0 0 0 0
0 0 -0 -0 -0 -0 0 0 0 0 0 0 0 0 0 0 0 0 0 0 0 0 1 0 0 0 0 0 0 0 0 -0 -0 -0 -0 -0 0 0 0 0 0 0 0
0 0 0 0 -0 -0 -0 0 0 0 0 0 0 0 0 -0 0 0 0 0 0 0 0 0 0 0 0 0 0 0 0 0 0 0 0 0 0 0 0 0 0 0 0
0 0 0 0 0 0 0 -0 -0 -0 -0 -0 -0 -0 0 -0 -0 -0 -0 -0 -0 0 0 0 0 0 0 0 0 0 0 0 0 0 0 0 0 0 0 0 0 0 0
0 0 0 0 0 0 0 0 -0 -0 -0 -0 0 0 -0 -0 -0 -0 -0 -0 0 0 0 0 0 0 0 0 0 0 0 0 0 0 0 0 0 0 0 0 0 0 0
0 0 0 0 -0 0 -0 -0 -0 -0 0 0 0 0 0 -0 -0 -0 -0 -0 0 0 0 0 0 0 0 0 0 0 0 0 0 0 0 0 0 0 0 0 0 0 0
-0 -0 -0 -0 -0 -0 -0 0 0 0 0 -0 0 -0 -0 -0 -0 -0 -0 -0 0 0 0 0 0 0 0 0 0 0 0 0 0 0 0 0 0 0 0 0 0 0 0
-0 -0 -0 -0 -0 -0 -0 0 0 0 0 0 0 0 -0 -0 -0 -0 -0 0 0 0 0 0 0 0 0 0 0 0 0 0 0 0 0 0 0 0 0 0 0 0 0
-0 -0 -0 -0 -0 -0 -0 0 -0 0 0 0 -0 -0 -0 -0 -0 0 0 0 1 1 1 0 0 0 0 0 0 0 0 0 0 0 0 0 0 0 0 0 0 0 0
-0 -0 -0 -0 -0 -0 -0 -0 -0 0 0 -0 -0 -0 -0 0 0 0 1 1 1 1 1 0 0 0 0 0 0 0 0 0 0 0 0 0 0 0 0 0 0 0 0
-0 -0 -0 -0 -0 -1 -1 -0 -0 0 0 -0 0 0 0 0 1 1 1 1 1 1 0 0 0 0 0 0 0 0 0 0 0 0 0 0 0 0 0 0 0 0 0
Wind_Speed_500mb
39 40 39 44 43 43 45 42 39 36 35 37 37 35 32 30 30 26 20 18 18 18 17 17 21 21 21 20 21 25 27 26 26 26 25 24 21 19 16 21 23 12 15
49 43 42 43 42 39 37 36 34 33 34 33 32 31 29 26 22 18 16 17 19 18 16 17 22 21 21 21 23 25 26 26 24 24 24 27 17 17 16 18 20 7 11
49 42 35 39 37 35 34 32 31 31 30 27 26 25 24 23 21 21 22 19 17 20 20 19 21 22 23 24 26 27 26 24 21 24 32 14 8 16 15 13 10 11 13
43 36 30 37 37 35 33 30 27 26 25 23 23 24 25 24 24 22 18 14 16 20 19 21 21 23 26 26 25 26 27 24 21 25 15 12 7 13 12 10 11 13 11
41 37 38 38 36 33 30 28 27 26 25 26 24 22 20 19 18 16 18 21 20 21 20 24 26 27 24 22 18 16 13 13 15 21 12 9 9 9 9 9 10 10 11
41 37 42 37 33 31 29 28 27 27 27 26 21 20 20 22 27 25 24 23 23 20 21 21 21 20 16 18 16 17 16 13 22 7 6 11 8 6 8 9 5 3 3
42 37 37 35 31 28 29 27 27 27 26 26 25 25 26 26 26 23 24 21 19 17 15 14 13 12 9 11 11 13 12 13 13 6 6 5 5 13 11 7 2 2 3
36 34 31 31 28 27 27 27 27 27 27 26 27 28 28 26 25 21 22 22 20 17 14 10 5 4 3 6 8 9 10 8 11 5 5 7 8 14 14 10 7 4 2
39 32 29 22 25 24 26 26 26 26 27 28 28 28 28 27 23 19 17 15 14 13 12 10 7 7 8 10 11 9 10 5 5 8 4 7 15 14 15 15 11 8 5
32 24 30 27 20 20 22 26 26 27 26 26 28 27 26 23 21 19 17 13 14 15 13 9 9 9 12 14 14 12 12 8 8 11 13 14 16 14 15 14 14 11 11
32 28 27 25 23 24 21 24 24 25 25 25 22 20 22 10 9 11 7 9 10 8 11 10 9 11 14 16 18 15 14 8 12 14 14 23 19 17 16 16 16 14 13
35 29 28 26 23 23 19 24 17 17 10 12 11 10 10 7 7 8 7 10 8 7 15 15 14 16 17 10 14 20 12 16 17 19 17 32 27 25 22 21 21 18 16
35 33 30 29 27 23 20 19 15 12 10 9 10 7 6 7 4 9 7 10 8 15 9 13 16 13 14 12 15 15 19 22 23 22 22 38 33 35 34 29 25 27 23
36 32 31 29 33 27 20 20 17 15 13 9 7 11 8 4 6 6 8 10 20 19 14 14 11 17 16 17 17 20 22 24 23 25 26 41 33 32 34 38 35 29 27
37 35 33 32 36 34 30 21 22 19 15 12 9 10 8 4 8 11 11 9 12 14 16 23 17 20 17 19 21 23 25 27 27 28 28 40 39 31 31 32 35 37 34
38 37 35 36 37 36 33 30 29 24 19 18 14 15 13 9 13 12 11 12 13 14 13 15 20 20 22 21 24 27 27 26 28 29 30 31 42 38 33 32 31 34 39
37 36 37 38 41 40 37 34 32 21 20 18 16 17 12 10 13 10 12 10 12 15 21 21 23 25 24 25 27 25 24 24 25 29 31 32 33 40 41 38 39 34 38
35 37 36 34 36 42 40 36 29 23 19 18 16 15 16 12 11 13 11 11 12 13 14 17 21 24 27 29 30 30 29 27 27 26 25 27 29 32 37 40 43 48 49
36 36 37 36 35 36 39 35 33 27 25 19 18 16 17 14 11 12 11 12 16 13 15 19 23 26 29 30 31 32 31 29 29 24 26 24 22 23 27 32 43 41 41
36 35 36 38 40 39 34 38 28 27 25 23 22 18 20 14 15 14 11 14 16 15 16 20 24 25 27 30 31 31 33 25 18 16 16 18 22 22 23 26 28 28 37
38 39 40 39 39 40 35 32 31 28 25 24 23 26 27 22 19 19 12 16 20 20 24 24 23 26 27 25 29 31 26 21 10 15 27 18 22 21 23 25 24 28 29
44 43 42 43 41 43 34 33 30 28 26 27 26 28 28 27 23 20 20 19 23 19 26 25 35 25 23 22 24 28 24 21 13 38 17 21 15 25 23 23 29 31 32
50 48 47 47 45 46 42 34 32 32 29 27 27 29 29 30 26 23 24 28 31 31 22 34 29 30 24 21 20 14 18 21 40 10 29 21 34 28 31 34 35 33 37
54 49 50 51 50 47 47 42 38 32 33 26 25 22 21 25 24 25 28 30 33 36 38 26 31 36 30 20 19 16 20 26 33 35 28 38 32 38 38 40 40 38 39
57 55 52 55 55 53 51 49 43 40 34 29 25 25 26 23 26 29 31 33 36 37 39 40 38 37 21 22 18 20 22 24 25 33 62 56 48 40 42 42 45 47 46
61 60 57 59 61 59 60 56 55 47 41 34 30 25 20 20 21 29 33 38 39 39 40 41 40 34 29 26 18 20 23 27 32 36 46 52 58 54 44 48 45 47 50
Wind_Direction_500mb
122 116 120 132 128 123 121 119 116 114 111 108 104 107 114 115 115 112 103 91 85 88 84 84 86 90 93 95 89 92 92 89 87 87 86 79 78 78 83 87 89 88 77
128 122 124 128 131 129 126 121 117 114 112 109 104 104 108 114 117 114 103 96 93 83 85 90 87 89 90 89 92 90 89 91 88 81 77 52 67 75 82 97 115 61 61
136 128 132 132 130 128 126 118 115 114 113 108 100 102 103 101 98 98 96 91 79 82 85 101 100 87 89 89 90 87 81 81 85 80 74 83 50 61 79 89 83 70 74
126 122 132 134 129 125 121 117 115 115 111 106 106 103 99 96 97 98 98 80 84 97 91 96 101 102 94 91 90 90 79 75 73 71 65 81 54 40 77 65 76 66 63
130 136 136 134 128 124 117 112 109 106 106 106 107 110 113 107 101 94 87 81 86 92 95 95 94 98 93 87 81 70 61 65 58 61 42 54 87 348 60 71 60 51 89
137 139 133 130 127 122 118 118 116 112 108 106 105 101 100 101 101 97 92 79 83 84 92 105 98 95 89 79 67 60 63 53 51 23 31 346 64 13 41 80 98 43 37
138 143 134 128 123 124 120 116 113 109 105 100 99 98 101 105 103 97 94 93 88 90 96 103 97 91 80 58 51 50 45 59 70 43 31 54 0 22 24 19 39 32 20
148 141 140 131 124 129 125 116 113 114 109 104 97 95 96 99 95 91 87 84 79 79 77 82 76 47 12 354 359 8 23 45 41 351 4 4 339 11 19 6 347 338 315
143 158 146 143 135 134 132 121 117 116 111 104 100 95 91 90 91 90 84 86 83 71 58 45 20 341 319 310 311 316 327 340 60 299 342 350 303 345 354 359 344 318 291
149 157 167 146 148 126 132 128 123 114 115 113 103 92 87 84 83 76 75 80 78 67 48 20 360 331 318 318 314 313 309 309 329 285 308 277 295 331 331 325 336 322 300
159 171 154 163 158 150 148 142 133 122 118 114 104 91 69 93 81 50 66 78 72 49 13 15 13 357 341 340 325 316 320 326 291 288 291 278 285 308 324 317 303 312 305
168 172 173 165 169 159 157 159 155 141 132 140 137 113 85 88 77 87 34 33 17 15 18 358 352 352 359 327 315 330 332 289 292 287 284 278 286 288 297 308 294 287 292
175 176 179 175 176 170 175 171 170 167 161 141 137 120 133 103 46 36 17 12 339 330 0 337 336 331 313 315 314 299 291 295 283 280 280 284 286 279 278 285 294 276 280
184 184 184 185 185 180 182 179 188 182 189 178 221 156 144 57 334 5 359 2 2 349 343 345 318 310 306 305 310 297 294 290 288 282 286 290 292 285 276 273 277 276 274
190 192 192 193 192 191 187 191 187 197 207 213 218 211 202 256 309 332 322 345 339 344 341 350 352 341 325 317 303 296 293 288 284 285 283 286 297 290 280 276 272 265 263
193 197 198 199 199 200 199 200 203 206 218 222 243 241 246 278 298 308 324 327 323 326 327 331 326 336 331 322 317 314 302 291 285 281 281 280 287 287 280 275 276 267 261
199 197 201 204 207 207 208 210 214 225 237 238 225 226 241 286 301 342 337 331 310 308 336 343 340 335 334 326 321 317 312 302 292 281 280 282 279 289 289 274 275 267 274
199 203 203 207 211 214 215 218 222 231 228 224 231 246 265 276 293 315 325 323 303 320 322 337 335 334 333 329 323 324 314 305 297 299 296 285 284 275 281 296 275 269 274
201 203 205 207 210 216 221 223 228 225 218 224 234 240 256 260 284 313 310 310 326 332 327 336 339 333 330 327 325 323 313 306 302 293 284 290 294 292 283 284 290 277 270
207 207 207 210 212 216 216 223 221 220 230 239 243 239 248 257 269 299 299 303 326 325 328 320 327 327 327 322 325 329 321 314 313 310 306 307 295 296 299 287 288 294 291
207 208 209 211 214 213 214 214 216 224 235 238 243 242 246 258 272 285 286 297 309 318 310 328 333 332 330 325 338 331 334 330 320 343 310 301 295 298 296 295 292 277 280
206 207 209 211 213 213 213 214 218 228 234 239 240 244 246 252 265 269 277 285 294 305 315 323 330 337 332 322 333 335 334 333 330 320 320 323 310 311 307 297 288 289 286
208 209 211 215 215 217 212 220 227 228 236 242 244 249 251 249 253 262 281 290 291 305 306 315 323 332 329 335 329 341 342 331 326 307 320 315 314 313 304 306 303 296 291
211 212 215 219 222 223 224 218 223 225 232 238 238 237 233 237 244 260 272 284 292 299 302 308 318 326 325 326 333 322 317 313 325 317 307 312 311 309 306 305 302 303 297
211 213 216 221 224 225 230 225 226 230 232 233 233 230 238 235 249 258 271 281 290 300 300 307 312 319 323 317 317 316 315 317 310 302 308 313 310 310 306 303 300 301 299
214 215 216 220 225 227 231 232 231 228 226 224 231 232 234 239 247 261 285 289 293 299 303 310 308 313 314 307 310 315 312 311 310 306 301 302 305 309 305 304 303 303 302
Wind_Speed_850mb
39 40 39 44 43 43 45 42 39 36 35 37 37 35 32 30 30 26 20 18 18 18 17 17 21 21 21 20 21 25 27 26 26 26 25 24 21 19 16 21 23 12 15
49 43 42 43 42 39 37 36 34 33 34 33 32 31 29 26 22 18 16 17 19 18 16 17 22 21 21 21 23 25 26 26 24 24 24 27 17 17 16 18 20 7 11
49 42 35 39 37 35 34 32 31 31 30 27 26 25 24 23 21 21 22 19 17 20 20 19 21 22 23 24 26 27 26 24 21 24 32 14 8 16 15 13 10 11 13
43 36 30 37 37 35 33 30 27 26 25 23 23 24 25 24 24 22 18 14 16 20 19 21 21 23 26 26 25 26 27 24 21 25 15 12 7 13 12 10 11 13 11
41 37 38 38 36 33 30 28 27 26 25 26 24 22 20 19 18 16 18 21 20 21 20 24 26 27 24 22 18 16 13 13 15 21 12 9 9 9 9 9 10 10 11
41 37 42 37 33 31 29 28 27 27 27 26 21 20 20 22 27 25 24 23 23 20 21 21 21 20 16 18 16 17 16 13 22 7 6 11 8 6 8 9 5 3 3
42 37 37 35 31 28 29 27 27 27 26 26 25 25 26 26 26 23 24 21 19 17 15 14 13 12 9 11 11 13 12 13 13 6 6 5 5 13 11 7 2 2 3
36 34 31 31 28 27 27 27 27 27 27 26 27 28 28 26 25 21 22 22 20 17 14 10 5 4 3 6 8 9 10 8 11 5 5 7 8 14 14 10 7 4 2
39 32 29 22 25 24 26 26 26 26 27 28 28 28 28 27 23 19 17 15 14 13 12 10 7 7 8 10 11 9 10 5 5 8 4 7 15 14 15 15 11 8 5
32 24 30 27 20 20 22 26 26 27 26 26 28 27 26 23 21 19 17 13 14 15 13 9 9 9 12 14 14 12 12 8 8 11 13 14 16 14 15 14 14 11 11
32 28 27 25 23 24 21 24 24 25 25 25 22 20 22 10 9 11 7 9 10 8 11 10 9 11 14 16 18 15 14 8 12 14 14 23 19 17 16 16 16 14 13
35 29 28 26 23 23 19 24 17 17 10 12 11 10 10 7 7 8 7 10 8 7 15 15 14 16 17 10 14 20 12 16 17 19 17 32 27 25 22 21 21 18 16
35 33 30 29 27 23 20 19 15 12 10 9 10 7 6 7 4 9 7 10 8 15 9 13 16 13 14 12 15 15 19 22 23 22 22 38 33 35 34 29 25 27 23
36 32 31 29 33 27 20 20 17 15 13 9 7 11 8 4 6 6 8 10 20 19 14 14 11 17 16 17 17 20 22 24 23 25 26 41 33 32 34 38 35 29 27
37 35 33 32 36 34 30 21 22 19 15 12 9 10 8 4 8 11 11 9 12 14 16 23 17 20 17 19 21 23 25 27 27 28 28 40 39 31 31 32 35 37 34
38 37 35 36 37 36 33 30 29 24 19 18 14 15 13 9 13 12 11 12 13 14 13 15 20 20 22 21 24 27 27 26 28 29 30 31 42 38 33 32 31 34 39
37 36 37 38 41 40 37 34 32 21 20 18 16 17 12 10 13 10 12 10 12 15 21 21 23 25 24 25 27 25 24 24 25 29 31 32 33 40 41 38 39 34 38
35 37 36 34 36 42 40 36 29 23 19 18 16 15 16 12 11 13 11 11 12 13 14 17 21 24 27 29 30 30 29 27 27 26 25 27 29 32 37 40 43 48 49
36 36 37 36 35 36 39 35 33 27 25 19 18 16 17 14 11 12 11 12 16 13 15 19 23 26 29 30 31 32 31 29 29 24 26 24 22 23 27 32 43 41 41
36 35 36 38 40 39 34 38 28 27 25 23 22 18 20 14 15 14 11 14 16 15 16 20 24 25 27 30 31 31 33 25 18 16 16 18 22 22 23 26 28 28 37
38 39 40 39 39 40 35 32 31 28 25 24 23 26 27 22 19 19 12 16 20 20 24 24 23 26 27 25 29 31 26 21 10 15 27 18 22 21 23 25 24 28 29
44 43 42 43 41 43 34 33 30 28 26 27 26 28 28 27 23 20 20 19 23 19 26 25 35 25 23 22 24 28 24 21 13 38 17 21 15 25 23 23 29 31 32
50 48 47 47 45 46 42 34 32 32 29 27 27 29 29 30 26 23 24 28 31 31 22 34 29 30 24 21 20 14 18 21 40 10 29 21 34 28 31 34 35 33 37
54 49 50 51 50 47 47 42 38 32 33 26 25 22 21 25 24 25 28 30 33 36 38 26 31 36 30 20 19 16 20 26 33 35 28 38 32 38 38 40 40 38 39
57 55 52 55 55 53 51 49 43 40 34 29 25 25 26 23 26 29 31 33 36 37 39 40 38 37 21 22 18 20 22 24 25 33 62 56 48 40 42 42 45 47 46
61 60 57 59 61 59 60 56 55 47 41 34 30 25 20 20 21 29 33 38 39 39 40 41 40 34 29 26 18 20 23 27 32 36 46 52 58 54 44 48 45 47 50
Wind_Direction_850mb
122 116 120 132 128 123 121 119 116 114 111 108 104 107 114 115 115 112 103 91 85 88 84 84 86 90 93 95 89 92 92 89 87 87 86 79 78 78 83 87 89 88 77
128 122 124 128 131 129 126 121 117 114 112 109 104 104 108 114 117 114 103 96 93 83 85 90 87 89 90 89 92 90 89 91 88 81 77 52 67 75 82 97 115 61 61
136 128 132 132 130 128 126 118 115 114 113 108 100 102 103 101 98 98 96 91 79 82 85 101 100 87 89 89 90 87 81 81 85 80 74 83 50 61 79 89 83 70 74
126 122 132 134 129 125 121 117 115 115 111 106 106 103 99 96 97 98 98 80 84 97 91 96 101 102 94 91 90 90 79 75 73 71 65 81 54 40 77 65 76 66 63
130 136 136 134 128 124 117 112 109 106 106 106 107 110 113 107 101 94 87 81 86 92 95 95 94 98 93 87 81 70 61 65 58 61 42 54 87 348 60 71 60 51 89
137 139 133 130 127 122 118 118 116 112 108 106 105 101 100 101 101 97 92 79 83 84 92 105 98 95 89 79 67 60 63 53 51 23 31 346 64 13 41 80 98 43 37
138 143 134 128 123 124 120 116 113 109 105 100 99 98 101 105 103 97 94 93 88 90 96 103 97 91 80 58 51 50 45 59 70 43 31 54 0 22 24 19 39 32 20
148 141 140 131 124 129 125 116 113 114 109 104 97 95 96 99 95 91 87 84 79 79 77 82 76 47 12 354 359 8 23 45 41 351 4 4 339 11 19 6 347 338 315
143 158 146 143 135 134 132 121 117 116 111 104 100 95 91 90 91 90 84 86 83 71 58 45 20 341 319 310 311 316 327 340 60 299 342 350 303 345 354 359 344 318 291
149 157 167 146 148 126 132 128 123 114 115 113 103 92 87 84 83 76 75 80 78 67 48 20 360 331 318 318 314 313 309 309 329 285 308 277 295 331 331 325 336 322 300
159 171 154 163 158 150 148 142 133 122 118 114 104 91 69 93 81 50 66 78 72 49 13 15 13 357 341 340 325 316 320 326 291 288 291 278 285 308 324 317 303 312 305
168 172 173 165 169 159 157 159 155 141 132 140 137 113 85 88 77 87 34 33 17 15 18 358 352 352 359 327 315 330 332 289 292 287 284 278 286 288 297 308 294 287 292
175 176 179 175 176 170 175 171 170 167 161 141 137 120 133 103 46 36 17 12 339 330 0 337 336 331 313 315 314 299 291 295 283 280 280 284 286 279 278 285 294 276 280
184 184 184 185 185 180 182 179 188 182 189 178 221 156 144 57 334 5 359 2 2 349 343 345 318 310 306 305 310 297 294 290 288 282 286 290 292 285 276 273 277 276 274
190 192 192 193 192 191 187 191 187 197 207 213 218 211 202 256 309 332 322 345 339 344 341 350 352 341 325 317 303 296 293 288 284 285 283 286 297 290 280 276 272 265 263
193 197 198 199 199 200 199 200 203 206 218 222 243 241 246 278 298 308 324 327 323 326 327 331 326 336 331 322 317 314 302 291 285 281 281 280 287 287 280 275 276 267 261
199 197 201 204 207 207 208 210 214 225 237 238 225 226 241 286 301 342 337 331 310 308 336 343 340 335 334 326 321 317 312 302 292 281 280 282 279 289 289 274 275 267 274
199 203 203 207 211 214 215 218 222 231 228 224 231 246 265 276 293 315 325 323 303 320 322 337 335 334 333 329 323 324 314 305 297 299 296 285 284 275 281 296 275 269 274
201 203 205 207 210 216 221 223 228 225 218 224 234 240 256 260 284 313 310 310 326 332 327 336 339 333 330 327 325 323 313 306 302 293 284 290 294 292 283 284 290 277 270
207 207 207 210 212 216 216 223 221 220 230 239 243 239 248 257 269 299 299 303 326 325 328 320 327 327 327 322 325 329 321 314 313 310 306 307 295 296 299 287 288 294 291
207 208 209 211 214 213 214 214 216 224 235 238 243 242 246 258 272 285 286 297 309 318 310 328 333 332 330 325 338 331 334 330 320 343 310 301 295 298 296 295 292 277 280
206 207 209 211 213 213 213 214 218 228 234 239 240 244 246 252 265 269 277 285 294 305 315 323 330 337 332 322 333 335 334 333 330 320 320 323 310 311 307 297 288 289 286
208 209 211 215 215 217 212 220 227 228 236 242 244 249 251 249 253 262 281 290 291 305 306 315 323 332 329 335 329 341 342 331 326 307 320 315 314 313 304 306 303 296 291
211 212 215 219 222 223 224 218 223 225 232 238 238 237 233 237 244 260 272 284 292 299 302 308 318 326 325 326 333 322 317 313 325 317 307 312 311 309 306 305 302 303 297
211 213 216 221 224 225 230 225 226 230 232 233 233 230 238 235 249 258 271 281 290 300 300 307 312 319 323 317 317 316 315 317 310 302 308 313 310 310 306 303 300 301 299
214 215 216 220 225 227 231 232 231 228 226 224 231 232 234 239 247 261 285 289 293 299 303 310 308 313 314 307 310 315 312 311 310 306 301 302 305 309 305 304 303 303 302